Date,TemperatureHighF,TemperatureAvgF,TemperatureLowF,DewpointHighF,DewpointAvgF,DewpointLowF,HumidityHigh,HumidityAvg,HumidityLow,PressureMaxIn,PressureMinIn,WindSpeedMaxMPH,WindSpeedAvgMPH,GustSpeedMaxMPH,PrecipitationSumIn
2013-11-1,70.9,61.7,55.6,61.4,55.0,51.2,97,80,56,29.77,29.36,39,12,39,0.02
2013-11-2,64.3,54.7,48.4,52.6,45.6,41.0,91,73,44,29.71,29.57,20,4,20,0.01
2013-11-3,52.0,43.5,32.4,47.6,33.9,17.0,88,71,32,30.42,29.70,32,12,32,0.01
2013-11-4,41.6,34.0,29.2,21.1,17.7,15.0,61,51,35,30.70,30.41,21,6,22,0.00
2013-11-5,45.8,39.0,30.6,35.8,27.9,17.0,82,65,53,30.71,30.50,17,4,17,0.00
2013-11-6,53.3,48.1,40.3,48.8,42.5,33.5,90,81,72,30.50,29.99,23,8,23,0.00
2013-11-7,62.6,52.3,39.3,56.5,47.4,31.0,94,83,66,29.99,29.65,23,7,24,0.12
2013-11-8,46.2,39.4,33.5,33.1,27.0,22.0,76,62,45,30.03,29.78,30,6,30,0.00
2013-11-9,42.9,39.3,33.5,32.3,23.1,20.0,73,53,43,30.15,30.03,32,6,32,0.00
2013-11-10,48.1,43.9,38.7,42.7,37.6,30.0,92,79,64,30.05,29.72,22,4,22,0.05
2013-11-11,49.0,44.3,38.7,34.6,29.2,26.0,74,56,41,30.06,29.78,32,8,32,0.00
2013-11-12,47.8,35.6,28.4,33.9,21.4,14.0,73,56,51,30.14,29.84,30,10,31,0.00
2013-11-13,34.2,28.1,24.4,15.4,13.6,10.0,63,55,38,30.25,30.12,19,7,23,0.00
2013-11-14,49.6,38.7,29.7,29.0,23.1,14.0,69,54,43,30.12,29.99,22,6,26,0.00
2013-11-15,51.4,42.1,34.1,39.0,28.0,21.0,77,58,38,30.17,30.09,10,4,14,0.00
2013-11-16,50.0,43.3,35.5,41.1,31.6,22.0,96,66,42,30.33,30.16,11,2,11,0.00
2013-11-17,51.0,44.0,35.0,50.1,43.0,33.5,98,96,93,30.33,29.88,11,3,17,0.15
2013-11-18,63.9,55.2,48.1,57.1,46.3,34.8,98,75,45,29.88,29.48,29,7,29,0.17
2013-11-19,47.9,38.2,31.7,35.0,21.6,16.0,66,51,41,30.25,29.61,36,11,36,0.00
2013-11-20,41.3,33.9,29.5,17.2,14.1,9.2,58,45,29,30.62,30.25,24,8,27,0.00
2013-11-21,46.6,36.1,24.5,24.8,17.0,10.0,68,47,23,30.63,30.35,15,3,16,0.00
2013-11-22,42.0,39.1,35.7,38.3,34.2,24.2,95,83,61,30.35,29.78,9,3,10,0.04
2013-11-23,42.7,39.0,30.1,40.8,29.5,14.0,96,71,36,29.86,29.73,32,9,40,0.01
2013-11-24,29.6,23.5,19.3,19.4,5.9,-1.0,67,47,36,30.10,29.72,52,17,52,0.01
2013-11-25,31.5,24.6,17.6,14.8,0.4,-9.1,50,35,19,30.32,30.09,35,10,36,0.00
2013-11-26,36.9,33.1,29.1,35.2,23.9,13.0,95,70,48,30.33,30.10,17,4,18,0.08
2013-11-27,56.1,47.9,36.4,55.5,46.7,32.0,98,96,84,30.09,29.18,35,11,39,1.33
2013-11-28,37.2,32.3,23.5,32.2,18.7,5.0,84,58,35,30.41,29.34,36,12,36,0.00
2013-11-29,30.4,24.2,19.5,10.2,7.5,4.0,63,50,33,30.74,30.41,19,6,21,0.00
2013-11-30,34.6,23.5,16.3,26.2,12.9,7.0,71,63,55,30.80,30.42,16,6,16,0.00